Time,TemperatureF,DewpointF,PressureIn,WindDirection,WindDirectionDegrees,WindSpeedMPH,WindSpeedGustMPH,Humidity,HourlyPrecipIn,Conditions,Clouds,dailyrainin,SoftwareType,DateUTC
2013-07-23 00:02:00,67.4,48.0,29.99,East,82,0.0,-999.0,51,-99.99,,,0.00,weatherlink.com 1.10,2013-07-23 07:02:00,
2013-07-23 00:17:00,67.6,48.0,29.99,East,80,0.0,-999.0,49,-99.99,,,0.00,weatherlink.com 1.10,2013-07-23 07:17:00,
2013-07-23 00:32:00,67.8,46.0,29.99,East,80,0.0,-999.0,46,-99.99,,,0.00,weatherlink.com 1.10,2013-07-23 07:32:00,
2013-07-23 00:47:00,67.9,46.0,29.99,ENE,78,0.0,-999.0,46,-99.99,,,0.00,weatherlink.com 1.10,2013-07-23 07:47:00,
2013-07-23 01:02:00,67.8,43.0,29.98,ENE,76,0.0,-999.0,41,-99.99,,,0.00,weatherlink.com 1.10,2013-07-23 08:02:00,
2013-07-23 01:17:00,67.4,44.0,29.98,ENE,76,0.0,-999.0,43,-99.99,,,0.00,weatherlink.com 1.10,2013-07-23 08:17:00,
2013-07-23 01:31:00,67.5,44.0,29.98,ENE,76,0.0,-999.0,43,-99.99,,,0.00,weatherlink.com 1.10,2013-07-23 08:31:00,
2013-07-23 01:46:00,67.1,49.0,29.98,ENE,75,0.0,-999.0,52,-99.99,,,0.00,weatherlink.com 1.10,2013-07-23 08:46:00,
2013-07-23 02:01:00,65.7,51.0,29.98,ENE,76,0.0,-999.0,60,-99.99,,,0.00,weatherlink.com 1.10,2013-07-23 09:01:00,
2013-07-23 02:16:00,66.0,46.0,29.98,ENE,75,0.0,-999.0,48,-99.99,,,0.00,weatherlink.com 1.10,2013-07-23 09:16:00,
2013-07-23 02:31:00,66.1,53.0,29.99,ESE,111,0.0,-999.0,62,-99.99,,,0.00,weatherlink.com 1.10,2013-07-23 09:31:00,
2013-07-23 02:46:00,65.2,53.0,29.99,East,94,0.0,-999.0,65,-99.99,,,0.00,weatherlink.com 1.10,2013-07-23 09:46:00,
2013-07-23 03:01:00,64.9,54.0,29.99,ENE,77,0.0,-999.0,67,-99.99,,,0.00,weatherlink.com 1.10,2013-07-23 10:01:00,
2013-07-23 03:16:00,64.8,54.0,29.99,ENE,78,0.0,-999.0,67,-99.99,,,0.00,weatherlink.com 1.10,2013-07-23 10:16:00,
2013-07-23 03:31:00,64.8,53.0,29.99,ENE,78,0.0,-999.0,66,-99.99,,,0.00,weatherlink.com 1.10,2013-07-23 10:31:00,
2013-07-23 03:46:00,65.3,53.0,30.00,ENE,78,0.0,-999.0,65,-99.99,,,0.00,weatherlink.com 1.10,2013-07-23 10:46:00,
2013-07-23 04:01:00,65.2,52.0,30.00,ENE,68,0.0,-999.0,62,-99.99,,,0.00,weatherlink.com 1.10,2013-07-23 11:01:00,
2013-07-23 04:16:00,64.9,51.0,29.99,ENE,69,0.0,-999.0,62,-99.99,,,0.00,weatherlink.com 1.10,2013-07-23 11:16:00,
2013-07-23 04:31:00,65.3,51.0,29.99,ENE,69,0.0,-999.0,60,-99.99,,,0.00,weatherlink.com 1.10,2013-07-23 11:31:00,
2013-07-23 04:46:00,66.0,47.0,29.98,ENE,69,0.0,-999.0,50,-99.99,,,0.00,weatherlink.com 1.10,2013-07-23 11:46:00,
2013-07-23 05:01:00,66.8,48.0,29.99,ENE,68,0.0,-999.0,52,-99.99,,,0.00,weatherlink.com 1.10,2013-07-23 12:01:00,
2013-07-23 05:16:00,67.2,49.0,29.99,ENE,68,0.0,-999.0,52,-99.99,,,0.00,weatherlink.com 1.10,2013-07-23 12:16:00,
2013-07-23 05:31:00,67.3,52.0,29.99,ENE,69,0.0,-999.0,59,-99.99,,,0.00,weatherlink.com 1.10,2013-07-23 12:31:00,
2013-07-23 05:46:00,66.5,48.0,30.00,ENE,69,0.0,-999.0,52,-99.99,,,0.00,weatherlink.com 1.10,2013-07-23 12:46:00,
2013-07-23 06:01:00,66.7,48.0,30.00,ENE,69,0.0,-999.0,51,-99.99,,,0.00,weatherlink.com 1.10,2013-07-23 13:01:00,
2013-07-23 06:16:00,66.6,46.0,30.00,ENE,69,0.0,-999.0,48,-99.99,,,0.00,weatherlink.com 1.10,2013-07-23 13:16:00,
2013-07-23 06:31:00,66.3,51.0,30.00,NE,55,0.0,-999.0,58,-99.99,,,0.00,weatherlink.com 1.10,2013-07-23 13:31:00,
2013-07-23 06:46:00,65.8,44.0,30.00,NE,55,0.0,-999.0,46,-99.99,,,0.00,weatherlink.com 1.10,2013-07-23 13:46:00,
2013-07-23 07:01:00,66.6,41.0,29.99,NE,55,0.0,-999.0,39,-99.99,,,0.00,weatherlink.com 1.10,2013-07-23 14:01:00,
2013-07-23 07:16:00,67.0,42.0,30.00,NE,55,0.0,-999.0,41,-99.99,,,0.00,weatherlink.com 1.10,2013-07-23 14:16:00,
2013-07-23 07:31:00,67.8,38.0,30.00,NE,55,0.0,-999.0,34,-99.99,,,0.00,weatherlink.com 1.10,2013-07-23 14:31:00,
2013-07-23 07:46:00,68.9,35.0,30.00,NE,55,0.0,-999.0,29,-99.99,,,0.00,weatherlink.com 1.10,2013-07-23 14:46:00,
2013-07-23 08:01:00,69.6,38.0,30.00,NE,55,0.0,-999.0,32,-99.99,,,0.00,weatherlink.com 1.10,2013-07-23 15:01:00,
2013-07-23 08:16:00,70.4,34.0,30.01,NE,55,0.0,-999.0,26,-99.99,,,0.00,weatherlink.com 1.10,2013-07-23 15:16:00,
2013-07-23 08:31:00,73.9,34.0,30.02,ENE,67,0.0,-999.0,23,-99.99,,,0.00,weatherlink.com 1.10,2013-07-23 15:31:00,
2013-07-23 08:46:00,74.2,35.0,30.02,ENE,69,0.0,-999.0,24,-99.99,,,0.00,weatherlink.com 1.10,2013-07-23 15:46:00,
2013-07-23 09:01:00,74.4,40.0,30.03,ESE,105,0.0,-999.0,29,-99.99,,,0.00,weatherlink.com 1.10,2013-07-23 16:01:00,
2013-07-23 09:16:00,73.4,52.0,30.03,ESE,105,0.0,-999.0,48,-99.99,,,0.00,weatherlink.com 1.10,2013-07-23 16:16:00,
2013-07-23 09:31:00,69.5,56.0,30.03,ESE,104,0.0,-999.0,62,-99.99,,,0.00,weatherlink.com 1.10,2013-07-23 16:31:00,
2013-07-23 09:46:00,68.1,55.0,30.04,NE,50,0.0,-999.0,64,-99.99,,,0.00,weatherlink.com 1.10,2013-07-23 16:46:00,
2013-07-23 10:01:00,65.2,54.0,30.04,East,82,0.0,-999.0,67,-99.99,,,0.00,weatherlink.com 1.10,2013-07-23 17:01:00,
2013-07-23 10:17:00,65.3,55.0,30.04,ENE,61,0.0,-999.0,69,-99.99,,,0.00,weatherlink.com 1.10,2013-07-23 17:17:00,
2013-07-23 10:32:00,68.5,55.0,30.04,ENE,61,0.0,-999.0,63,-99.99,,,0.00,weatherlink.com 1.10,2013-07-23 17:32:00,
2013-07-23 10:47:00,68.7,55.0,30.04,ENE,61,0.0,-999.0,61,-99.99,,,0.00,weatherlink.com 1.10,2013-07-23 17:47:00,
2013-07-23 11:02:00,67.0,56.0,30.04,WNW,300,0.0,-999.0,67,-99.99,,,0.00,weatherlink.com 1.10,2013-07-23 18:02:00,
2013-07-23 11:17:00,67.5,55.0,30.05,ESE,121,0.0,-999.0,65,-99.99,,,0.00,weatherlink.com 1.10,2013-07-23 18:17:00,
2013-07-23 11:32:00,69.3,57.0,30.04,ESE,123,0.0,-999.0,65,-99.99,,,0.00,weatherlink.com 1.10,2013-07-23 18:32:00,
2013-07-23 11:47:00,70.9,54.0,30.04,SE,128,0.0,-999.0,55,-99.99,,,0.00,weatherlink.com 1.10,2013-07-23 18:47:00,
2013-07-23 12:02:00,71.5,57.0,30.04,SE,137,0.0,-999.0,60,-99.99,,,0.00,weatherlink.com 1.10,2013-07-23 19:02:00,
2013-07-23 12:17:00,70.4,55.0,30.04,ESE,117,1.0,-999.0,58,-99.99,,,0.00,weatherlink.com 1.10,2013-07-23 19:17:00,
2013-07-23 12:32:00,72.4,58.0,30.04,ESE,115,0.0,-999.0,61,-99.99,,,0.00,weatherlink.com 1.10,2013-07-23 19:32:00,
2013-07-23 12:47:00,72.5,59.0,30.03,ESE,115,0.0,-999.0,62,-99.99,,,0.00,weatherlink.com 1.10,2013-07-23 19:47:00,
2013-07-23 13:02:00,73.6,59.0,30.03,WSW,248,0.0,-999.0,60,-99.99,,,0.00,weatherlink.com 1.10,2013-07-23 20:02:00,
2013-07-23 13:17:00,70.7,57.0,30.03,West,259,0.0,-999.0,62,-99.99,,,0.00,weatherlink.com 1.10,2013-07-23 20:17:00,
2013-07-23 13:47:00,71.0,57.0,30.03,WSW,238,0.0,-999.0,62,-99.99,,,0.00,weatherlink.com 1.10,2013-07-23 20:47:00,
2013-07-23 14:32:00,72.7,58.0,30.02,WSW,241,0.0,-999.0,61,-99.99,,,0.00,weatherlink.com 1.10,2013-07-23 21:32:00,
2013-07-23 14:47:00,73.5,59.0,30.02,WSW,237,0.0,-999.0,61,-99.99,,,0.00,weatherlink.com 1.10,2013-07-23 21:47:00,
2013-07-23 15:02:00,72.6,58.0,30.02,SW,235,0.0,-999.0,61,-99.99,,,0.00,weatherlink.com 1.10,2013-07-23 22:02:00,
2013-07-23 15:47:00,73.3,59.0,30.01,SW,234,0.0,-999.0,62,-99.99,,,0.00,weatherlink.com 1.10,2013-07-23 22:47:00,
2013-07-23 16:02:00,72.9,59.0,30.01,WSW,244,0.0,-999.0,61,-99.99,,,0.00,weatherlink.com 1.10,2013-07-23 23:02:00,
2013-07-23 16:32:00,74.2,59.0,30.00,WSW,243,0.0,-999.0,60,-99.99,,,0.00,weatherlink.com 1.10,2013-07-23 23:32:00,
2013-07-23 16:47:00,72.4,58.0,30.00,WSW,244,0.0,-999.0,61,-99.99,,,0.00,weatherlink.com 1.10,2013-07-23 23:47:00,
2013-07-23 17:17:00,71.2,57.0,30.00,WSW,238,0.0,-999.0,62,-99.99,,,0.00,weatherlink.com 1.10,2013-07-24 00:17:00,
2013-07-23 17:32:00,71.3,58.0,30.00,WSW,238,0.0,-999.0,63,-99.99,,,0.00,weatherlink.com 1.10,2013-07-24 00:32:00,
2013-07-23 17:47:00,70.3,57.0,30.00,WSW,238,0.0,-999.0,63,-99.99,,,0.00,weatherlink.com 1.10,2013-07-24 00:47:00,
2013-07-23 18:02:00,70.7,57.0,30.00,WSW,238,0.0,-999.0,62,-99.99,,,0.00,weatherlink.com 1.10,2013-07-24 01:02:00,
2013-07-23 18:17:00,70.8,57.0,30.00,WSW,237,0.0,-999.0,62,-99.99,,,0.00,weatherlink.com 1.10,2013-07-24 01:17:00,
2013-07-23 18:32:00,70.6,57.0,29.99,WSW,238,0.0,-999.0,62,-99.99,,,0.00,weatherlink.com 1.10,2013-07-24 01:32:00,
2013-07-23 18:47:00,70.8,57.0,29.99,WSW,238,0.0,-999.0,62,-99.99,,,0.00,weatherlink.com 1.10,2013-07-24 01:47:00,
2013-07-23 19:02:00,71.1,57.0,29.98,WSW,238,0.0,-999.0,62,-99.99,,,0.00,weatherlink.com 1.10,2013-07-24 02:02:00,
2013-07-23 19:32:00,70.5,57.0,29.99,WSW,237,0.0,-999.0,62,-99.99,,,0.00,weatherlink.com 1.10,2013-07-24 02:32:00,
2013-07-23 20:02:00,69.3,57.0,29.99,WSW,238,0.0,-999.0,64,-99.99,,,0.00,weatherlink.com 1.10,2013-07-24 03:02:00,
2013-07-23 20:32:00,67.6,55.0,29.99,WSW,238,0.0,-999.0,65,-99.99,,,0.00,weatherlink.com 1.10,2013-07-24 03:32:00,
2013-07-23 21:02:00,66.5,55.0,30.00,WSW,237,0.0,-999.0,67,-99.99,,,0.00,weatherlink.com 1.10,2013-07-24 04:02:00,
2013-07-23 21:17:00,66.1,55.0,30.00,WSW,238,0.0,-999.0,68,-99.99,,,0.00,weatherlink.com 1.10,2013-07-24 04:17:00,
2013-07-23 21:32:00,64.8,49.0,30.00,WSW,238,0.0,-999.0,58,-99.99,,,0.00,weatherlink.com 1.10,2013-07-24 04:32:00,
2013-07-23 21:47:00,66.3,54.0,29.99,WSW,238,0.0,-999.0,65,-99.99,,,0.00,weatherlink.com 1.10,2013-07-24 04:47:00,
2013-07-23 22:02:00,66.9,52.0,30.00,WSW,237,0.0,-999.0,60,-99.99,,,0.00,weatherlink.com 1.10,2013-07-24 05:02:00,
2013-07-23 22:17:00,66.0,50.0,30.00,WSW,237,0.0,-999.0,57,-99.99,,,0.00,weatherlink.com 1.10,2013-07-24 05:17:00,
2013-07-23 22:32:00,65.9,52.0,30.00,WSW,238,0.0,-999.0,62,-99.99,,,0.00,weatherlink.com 1.10,2013-07-24 05:32:00,
2013-07-23 22:47:00,64.9,51.0,30.00,WSW,240,0.0,-999.0,60,-99.99,,,0.00,weatherlink.com 1.10,2013-07-24 05:47:00,
2013-07-23 23:02:00,65.0,47.0,30.00,WSW,240,0.0,-999.0,53,-99.99,,,0.00,weatherlink.com 1.10,2013-07-24 06:02:00,
2013-07-23 23:17:00,65.2,49.0,30.00,WSW,240,0.0,-999.0,56,-99.99,,,0.00,weatherlink.com 1.10,2013-07-24 06:17:00,
2013-07-23 23:32:00,65.5,51.0,30.00,WSW,240,0.0,-999.0,60,-99.99,,,0.00,weatherlink.com 1.10,2013-07-24 06:32:00,
2013-07-23 23:47:00,65.2,51.0,30.00,WSW,240,0.0,-999.0,60,-99.99,,,0.00,weatherlink.com 1.10,2013-07-24 06:47:00,